Weather History for Key West NAF, FL

Change the Weather History Date:

Monday, October 29, 2012

  Actual Average Record
Temperature  
Mean Temperature 72 °F -  
Max Temperature 75 °F 82 °F 88 °F (1959)
Min Temperature 68 °F 74 °F 1 °F (2012)
Cooling Degree Days 7    
Growing Degree Days 22 (Base 50)    
Moisture  
Dew Point 56 °F    
Average Humidity 56    
Maximum Humidity 69    
Minimum Humidity 49    
Precipitation  
Precipitation 0.00 in - - ()
Sea Level Pressure  
Sea Level Pressure 29.86 in    
Wind  
Wind Speed 16 mph (NW)    
Max Wind Speed 20 mph    
Max Gust Speed 31 mph    
Visibility 10 miles    
Events      
Averages and records for this station are not official NWS values.
T = Trace of Precipitation, MM = Missing Value Source: NWS Daily Summary

Daily Weather History Graph

Daily Weather History Graph

Search for Another Location

Airport:

Trip Planner

Search our weather history database for the weather conditions in past years. The results will help you decide how hot, cold, wet, or windy it might be!

Date:

Astronomy

Oct. 29, 2012 Rise Set
Actual Time 7:32 AM EDT 6:48 PM EDT
Civil Twilight 7:08 AM EDT 7:11 PM EDT
Nautical Twilight 6:41 AM EDT 7:38 PM EDT
Astronomical Twilight 6:15 AM EDT 8:05 PM EDT
Moon 6:44 PM EDT (10/29) 7:18 AM EDT (10/29)
Length of Visible Light 12h 02m
Length of Day
11h 16m
Full, 100% of the Moon is Illuminated
Oct 29
Full
Oct 29
Full
Nov 6
Last Quarter
Nov 13
New
Nov 20
First Quarter

Hourly Weather History & Observations

Time (EDT) Temp. Dew Point Humidity Pressure Visibility Wind Dir Wind Speed Gust Speed Precip Events Conditions
12:53 AM 75.0 °F 57.9 °F 55% 29.83 in 10.0 mi NW 16.1 mph 27.6 mph N/A   Scattered Clouds
1:53 AM 75.0 °F 60.1 °F 60% 29.83 in 10.0 mi NW 17.3 mph 26.5 mph N/A   Overcast
2:53 AM 75.0 °F 59.0 °F 57% 29.82 in 10.0 mi NW 17.3 mph 25.3 mph N/A   Mostly Cloudy
3:53 AM - - N/A% 29.82 in - NW 16.1 mph 25.3 mph N/A   Overcast
4:53 AM - - N/A% 29.82 in - NW 15.0 mph 24.2 mph N/A   Overcast
5:53 AM - - N/A% 29.83 in 10.0 mi NW 18.4 mph 31.1 mph N/A   Mostly Cloudy
6:13 AM 71.6 °F 60.8 °F 69% 29.83 in 10.0 mi NNW 16.1 mph 21.9 mph N/A   Mostly Cloudy
6:53 AM 71.6 °F 60.1 °F 67% 29.85 in 10.0 mi NNW 18.4 mph 25.3 mph N/A   Mostly Cloudy
7:53 AM 73.4 °F 57.0 °F 56% 29.86 in 10.0 mi NNW 19.6 mph 26.5 mph N/A   Mostly Cloudy
8:53 AM 73.4 °F 55.9 °F 54% 29.88 in 10.0 mi NNW 15.0 mph 24.2 mph N/A   Mostly Cloudy
9:53 AM 73.4 °F 57.9 °F 58% 29.90 in 10.0 mi NNW 16.1 mph 24.2 mph N/A   Mostly Cloudy
10:53 AM 73.8 °F 57.2 °F 56% 29.91 in 10.0 mi NNW 17.3 mph 26.5 mph N/A   Scattered Clouds
11:53 AM 73.4 °F 57.2 °F 57% 29.91 in 10.0 mi NW 19.6 mph - N/A   Scattered Clouds
12:53 PM 73.8 °F 55.0 °F 52% 29.90 in 10.0 mi NNW 19.6 mph 25.3 mph N/A   Scattered Clouds
1:53 PM 73.4 °F 55.0 °F 52% 29.87 in 10.0 mi NW 16.1 mph - N/A   Scattered Clouds
2:53 PM 73.4 °F 55.4 °F 53% 29.86 in 10.0 mi NW 15.0 mph 21.9 mph N/A   Scattered Clouds
3:53 PM 73.4 °F 55.4 °F 53% 29.85 in 10.0 mi NW 13.8 mph 21.9 mph N/A   Scattered Clouds
4:53 PM 73.4 °F 55.4 °F 53% 29.84 in 10.0 mi NW 12.7 mph 21.9 mph N/A   Scattered Clouds
5:53 PM 73.4 °F 53.1 °F 49% 29.84 in 10.0 mi NW 16.1 mph 20.7 mph N/A   Scattered Clouds
6:53 PM 71.6 °F 53.1 °F 52% 29.86 in 10.0 mi NW 11.5 mph 21.9 mph N/A   Mostly Cloudy
7:53 PM 71.6 °F 53.1 °F 52% 29.86 in 10.0 mi NW 15.0 mph 24.2 mph N/A   Mostly Cloudy
8:53 PM 69.8 °F 51.1 °F 51% 29.89 in 10.0 mi NW 15.0 mph 25.3 mph N/A   Scattered Clouds
9:53 PM 68.0 °F 53.1 °F 59% 29.91 in 10.0 mi NW 12.7 mph - N/A   Mostly Cloudy
10:53 PM - - N/A% 29.91 in 10.0 mi WNW 12.7 mph 21.9 mph N/A   Mostly Cloudy
11:53 PM - - N/A% 29.91 in 10.0 mi NW 11.5 mph 23.0 mph N/A   Scattered Clouds